This is the latest recevied weather packets stored in our database for station/object W2SRH. If no packets are shown the sender has not sent any weather packets the latest 10 day(s).
| Time | Temp. | Humidity | Pressure | Rain* | Wind** | Luminosity | Snow |
|---|---|---|---|---|---|---|---|
| 1787428145 | 26.11° C | 57% | 1006.6 hPa | 0 mm | 0.45 m/s, 163° | - | - |
| 1787427543 | 26.11° C | 57% | 1006.7 hPa | 0 mm | 0 m/s | - | - |
| 1787426945 | 26.11° C | 56% | 1006.7 hPa | 0 mm | 0.45 m/s, 137° | - | - |
| 1787426346 | 25.56° C | 58% | 1006.9 hPa | 0 mm | 0.45 m/s, 150° | - | - |
| 1787425744 | 25.56° C | 58% | 1007 hPa | 0 mm | 0 m/s | - | - |
| 1787425147 | 25.56° C | 57% | 1007.2 hPa | 0 mm | 0.45 m/s, 148° | - | - |
| 1787424544 | 25.56° C | 58% | 1007.4 hPa | 0 mm | 0 m/s | - | - |
| 1787423944 | 25.56° C | 58% | 1007.6 hPa | 0 mm | 0.45 m/s, 175° | - | - |
| 1787423346 | 25.56° C | 59% | 1007.6 hPa | 0 mm | 0.89 m/s, 132° | - | - |
| 1787422744 | 25° C | 60% | 1007.6 hPa | 0 mm | 0 m/s | - | - |
| 1787422145 | 25° C | 63% | 1007.6 hPa | 0 mm | 0.89 m/s, 132° | - | - |
| 1787421548 | 25.56° C | 61% | 1007.8 hPa | 0 mm | 0.89 m/s, 137° | - | - |
| 1787421445 | 25° C | 62% | 1007.9 hPa | 0 mm | 0.89 m/s, 144° | - | - |
| 1787420945 | 25.56° C | 60% | 1007.8 hPa | 0 mm | 0.45 m/s, 183° | - | - |
| 1787420345 | 25° C | 62% | 1007.9 hPa | 0 mm | 0.89 m/s, 144° | - | - |
| 1787419747 | 25.56° C | 62% | 1007.9 hPa | 0 mm | 0.89 m/s, 149° | - | - |
| 1787419146 | 25° C | 63% | 1007.9 hPa | 0 mm | 0.45 m/s, 154° | - | - |
| 1787419145 | 25° C | 63% | 1007.9 hPa | 0 mm | 0.45 m/s, 154° | - | - |
| 1787418545 | 25° C | 63% | 1008.1 hPa | 0 mm | 0 m/s | - | - |
| 1787417945 | 24.44° C | 65% | 1008.2 hPa | 0 mm | 0.45 m/s, 160° | - | - |
| 1787417345 | 23.89° C | 67% | 1008.3 hPa | 0 mm | 0.89 m/s, 100° | - | - |
| 1787416745 | 24.44° C | 67% | 1008.5 hPa | 0 mm | 0.89 m/s, 118° | - | - |
| 1787416147 | 24.44° C | 67% | 1008.6 hPa | 0 mm | 0 m/s | - | - |
| 1787415543 | 24.44° C | 66% | 1008.5 hPa | 0 mm | 0.45 m/s, 139° | - | - |
| 1787414946 | 23.89° C | 67% | 1008.6 hPa | 0 mm | 0.45 m/s, 124° | - | - |
* Rain latest hour (hover to see other rain measurements)
** Current wind speed in m/s (hover to see current wind gust speed)